Temperature
17 17 16 16 16 16 16 16 17 17 16 16 16 16 16 16 16 16 16 16 16 16 16 16 16 16 16 16 16 16 16 16 17 17 17 16 16 16 16 16 15 15 16
17 17 17 16 16 16 16 17 17 17 17 16 16 16 16 16 16 16 16 16 15 15 15 15 15 15 15 16 16 16 16 16 16 16 16 16 15 15 15 15 15 16 15
17 17 16 16 16 16 16 16 16 16 16 16 16 16 16 16 16 16 16 15 15 15 15 15 15 15 15 15 15 15 15 16 15 15 16 16 15 15 15 15 15 15 15
16 16 16 16 16 16 16 16 16 16 16 16 16 16 16 16 16 16 16 15 15 15 15 15 15 15 15 15 15 15 15 15 15 15 15 15 15 15 14 14 15 15 14
16 16 16 16 16 16 16 16 16 16 16 16 16 16 16 15 15 15 15 15 15 15 15 15 15 15 15 15 15 15 14 14 15 15 15 15 15 14 14 14 14 14 14
16 16 16 16 16 16 16 16 16 16 16 16 16 16 15 15 15 15 15 15 15 15 14 14 14 14 14 14 14 14 14 14 14 14 14 14 14 13 13 13 13 14 14
16 16 16 16 16 16 16 16 16 16 16 16 16 15 15 15 15 15 15 15 15 14 14 14 14 14 14 14 14 14 14 14 14 13 13 13 13 13 13 12 12 12 12
16 16 16 16 16 16 16 15 15 15 15 15 15 15 15 15 15 15 15 15 14 14 14 14 14 14 13 13 13 13 13 13 13 12 12 12 12 12 12 11 11 11 12
16 16 16 16 16 16 16 15 15 15 15 15 15 15 15 15 14 14 14 14 14 13 13 13 13 13 13 13 13 12 12 12 12 12 12 12 12 11 11 11 11 11 11
16 16 16 16 16 15 15 15 15 15 14 14 14 14 14 14 14 14 14 13 13 13 12 12 12 12 12 12 12 12 11 11 11 11 11 11 11 10 10 10 10 10 10
15 15 15 15 15 15 15 14 14 14 14 14 14 14 13 13 13 13 13 13 12 12 12 11 11 11 11 11 11 11 11 11 10 10 10 9 9 9 9 9 9 9 9
15 15 15 15 14 14 14 14 14 13 13 13 13 12 12 12 12 12 12 12 11 11 11 11 10 10 10 10 10 10 10 10 9 9 9 9 9 8 8 8 8 8 8
14 14 14 14 14 13 13 13 13 13 13 12 12 12 11 11 11 11 11 11 11 11 10 10 10 9 9 9 9 9 9 9 8 8 8 8 7 7 7 7 7 7 7
14 13 13 13 13 12 12 12 12 12 12 11 11 11 10 10 10 10 10 10 10 9 9 9 8 8 8 8 8 8 7 7 7 7 7 7 7 6 6 6 6 6 7
13 12 12 12 12 12 11 11 11 11 11 11 10 10 10 9 9 9 9 9 9 8 8 8 7 7 7 7 7 7 6 6 6 6 6 6 6 6 6 6 6 6 6
12 12 11 11 11 11 11 10 10 10 10 10 9 9 9 9 8 8 8 8 8 8 7 7 7 7 6 6 6 6 6 5 5 5 5 5 5 5 5 5 5 5 5
11 11 11 10 10 10 10 10 9 8 8 8 8 8 8 8 8 7 7 7 7 7 7 6 6 6 5 5 5 5 5 4 4 4 4 4 4 4 4 4 4 4 4
10 10 10 10 9 9 9 9 8 8 7 7 7 7 7 7 7 7 7 7 6 6 6 6 5 5 5 4 4 4 4 4 4 4 3 3 3 4 4 4 4 3 3
10 10 10 9 9 8 8 8 8 7 7 7 6 6 6 6 6 6 6 6 6 5 5 5 4 4 4 4 3 3 3 3 3 3 3 2 3 3 3 3 3 2 3
9 9 9 9 8 8 8 8 7 7 7 7 6 6 6 6 5 5 5 5 5 5 4 4 4 3 3 3 3 3 3 3 2 2 2 2 2 2 2 2 2 2 2
9 9 8 8 8 8 8 7 7 7 7 6 6 5 5 6 5 5 5 4 4 4 3 3 3 3 3 3 2 2 2 2 2 2 2 2 2 2 2 2 2 2 2
9 9 8 8 8 8 7 7 7 7 6 6 5 5 5 5 5 4 4 4 3 3 3 3 3 2 2 2 2 2 2 2 1 1 1 1 1 1 1 1 1 1 2
9 8 8 8 7 7 7 7 7 6 6 6 5 5 5 4 4 4 3 3 3 3 2 2 2 2 1 1 1 1 1 1 1 1 1 1 1 1 1 1 1 1 2
8 8 8 7 7 7 7 6 6 6 6 5 5 5 4 4 4 3 3 3 3 2 2 2 1 1 1 1 1 1 1 1 1 0 0 0 0 1 1 1 1 1 1
8 8 8 8 7 7 7 6 6 6 6 5 5 5 4 4 4 3 3 3 2 2 2 1 1 1 1 0 0 1 1 1 1 1 0 0 0 0 0 1 1 1 1
8 8 8 7 7 7 6 6 6 6 5 5 5 4 4 4 4 3 3 3 2 2 2 1 1 1 0 0 1 1 1 1 1 0 0 0 0 0 0 0 1 1 1
Wind_Speed
9 9 9 9 9 9 8 9 9 9 9 10 10 10 10 9 8 8 8 8 9 8 7 7 8 7 6 6 6 6 7 6 7 6 4 3 3 6 3 5 7 8 10
9 9 9 9 9 9 9 9 9 9 9 10 9 9 9 9 9 9 9 8 9 9 8 8 8 7 7 7 6 7 6 6 7 8 6 4 5 6 5 6 8 8 8
9 9 9 8 8 8 9 9 9 9 9 9 9 9 9 9 8 8 8 8 8 8 8 8 8 8 8 7 7 7 7 7 7 7 7 5 5 4 5 6 7 6 9
8 9 9 9 8 8 8 8 8 8 8 8 9 8 8 8 8 8 8 8 7 7 7 7 7 7 8 8 7 7 7 7 6 7 7 5 5 4 4 5 6 5 6
7 8 8 8 8 7 7 7 7 7 7 7 7 7 7 7 7 7 8 7 6 5 5 5 5 3 2 3 5 5 6 6 6 6 6 5 4 3 4 5 6 6 6
7 7 7 7 7 7 7 6 6 6 7 7 7 7 6 5 4 5 6 6 5 5 5 4 4 3 2 2 2 3 4 4 5 5 4 4 4 4 5 6 6 6 6
7 7 7 7 7 6 6 6 6 6 6 6 6 6 6 4 6 6 5 4 4 4 4 3 3 2 3 3 3 3 0 3 3 4 4 5 5 5 6 6 6 7 8
6 6 6 7 7 7 6 6 6 5 5 5 5 5 4 4 5 6 6 5 4 3 2 2 2 1 1 2 2 2 2 1 0 1 2 3 4 5 5 6 7 7 8
6 6 6 7 7 7 7 6 6 6 5 4 4 4 4 4 4 4 5 5 4 4 4 3 2 2 4 2 2 2 2 2 4 5 4 3 4 5 6 5 5 6 7
5 5 5 6 6 6 6 6 6 6 6 6 6 5 6 5 6 5 4 4 5 5 5 6 9 7 7 5 2 2 2 1 1 1 2 1 1 2 2 4 5 6 6
5 5 5 5 6 6 6 6 6 7 8 8 8 8 8 7 8 8 5 3 5 5 5 5 6 10 11 10 7 5 3 2 1 2 2 2 3 3 4 5 6 5 6
5 6 6 6 6 6 8 7 7 8 9 9 9 8 7 7 8 9 10 8 6 7 6 6 7 11 13 11 8 6 4 2 2 2 3 4 4 5 5 5 5 5 5
7 7 7 8 8 8 8 8 7 6 7 7 7 7 7 7 8 13 13 13 12 9 9 12 10 8 9 9 9 6 4 4 4 4 5 5 5 5 4 4 4 3 4
9 9 9 10 10 9 7 6 6 6 7 7 8 8 8 7 6 6 8 10 13 12 11 11 10 9 8 7 6 6 7 7 6 5 5 5 5 5 5 5 6 6 6
11 10 10 11 12 12 12 11 9 9 8 8 8 8 8 8 7 9 7 7 7 7 7 6 6 6 7 7 7 7 7 6 6 6 5 5 5 6 6 6 6 7 7
11 11 10 10 11 11 13 15 21 18 21 20 16 12 11 12 12 14 14 13 10 4 5 7 7 7 7 6 6 6 7 7 7 6 6 6 6 6 6 6 6 7 8
12 12 11 11 11 11 12 13 14 16 21 21 19 17 15 13 14 13 12 10 6 3 7 8 7 7 6 6 6 6 6 6 6 6 6 6 6 6 7 7 7 8 8
14 13 12 10 10 11 11 11 11 12 12 12 13 15 14 14 12 8 6 6 7 7 8 8 7 7 7 6 6 6 6 6 6 6 6 6 7 7 7 7 7 9 9
12 11 11 11 11 11 11 11 11 12 11 11 10 10 11 11 9 6 4 7 8 8 8 8 7 7 6 6 6 5 6 6 6 6 6 7 7 7 7 8 8 7 9
12 13 11 11 11 10 10 10 10 10 10 9 9 8 7 7 7 7 8 8 8 8 7 7 7 7 6 5 5 5 5 6 6 6 6 6 7 7 7 8 8 9 8
12 12 12 10 10 10 9 9 9 9 9 9 9 8 6 7 8 8 8 7 7 7 7 6 6 6 6 5 6 6 6 6 6 7 7 7 7 7 7 8 8 8 9
10 10 9 10 10 9 9 9 9 9 10 10 9 9 5 6 7 7 7 7 7 6 6 6 5 6 6 6 6 6 6 7 7 8 8 8 7 7 8 8 8 9 9
10 11 11 10 10 9 9 8 8 8 8 8 7 7 6 6 6 6 6 6 6 6 6 5 5 6 7 7 7 7 7 8 8 9 9 8 8 8 8 8 9 10 10
10 10 10 9 9 8 8 8 8 8 7 7 7 6 6 6 6 6 5 5 5 5 5 5 5 6 7 7 7 8 9 10 11 10 10 9 9 8 9 9 9 10 10
8 8 8 8 8 8 8 7 7 7 7 6 6 6 6 5 5 5 4 4 4 5 5 5 5 5 6 7 9 9 11 11 11 11 11 10 9 9 10 10 10 10 10
8 8 7 7 7 7 7 7 6 6 6 5 5 5 5 4 4 4 3 3 3 3 3 4 5 5 5 6 8 8 10 11 12 13 12 10 9 9 10 10 11 10 10
Wind_Direction
182 186 185 186 187 188 191 196 197 197 196 198 199 197 198 200 201 208 221 212 217 220 224 226 229 244 240 236 234 239 241 247 258 264 251 232 235 268 248 250 248 239 228
180 182 183 185 184 184 189 195 195 195 198 200 201 201 203 204 204 208 216 215 216 218 221 227 232 230 230 247 243 241 241 246 255 265 271 254 233 245 253 260 260 252 260
174 179 181 185 185 188 191 194 194 196 200 202 202 203 206 207 206 208 211 215 219 221 222 224 231 235 232 235 237 242 241 238 245 259 262 263 255 250 255 256 261 263 267
175 177 182 187 189 190 191 192 193 194 197 199 200 204 207 208 208 208 207 210 216 223 226 227 230 235 236 238 238 244 249 250 244 252 260 257 251 249 259 269 267 253 263
179 182 186 186 187 188 188 189 188 190 194 195 197 202 206 207 207 207 206 204 207 213 220 225 227 228 281 267 263 255 249 248 250 249 257 260 262 274 273 277 280 280 268
183 187 186 185 185 187 187 183 182 186 189 187 192 193 194 202 174 185 205 201 200 207 212 212 204 177 154 141 40 11 340 276 271 272 269 276 289 289 295 293 295 290 286
186 189 185 184 182 182 180 178 183 186 186 183 185 186 187 179 152 163 181 191 190 195 203 207 219 188 175 191 168 169 30 1 337 287 285 296 301 309 305 295 297 295 295
180 182 178 181 180 177 177 176 174 172 168 167 170 173 172 154 144 160 165 173 169 158 162 186 184 155 169 190 177 149 120 65 17 268 302 318 325 323 303 293 293 286 275
175 178 179 177 175 171 170 165 159 154 149 152 150 145 143 119 112 140 161 153 134 114 95 74 84 101 55 65 137 138 123 109 90 89 78 67 38 10 339 306 302 294 293
169 172 171 167 165 163 156 146 141 134 128 118 103 95 95 89 85 95 129 135 126 115 95 79 62 62 54 46 115 123 117 84 51 111 114 137 36 55 8 337 324 310 309
150 148 145 143 143 140 135 131 131 126 118 111 103 91 84 76 78 75 84 113 117 112 100 85 68 65 63 55 56 66 48 357 52 56 56 45 36 25 16 11 356 332 321
129 130 131 130 130 127 121 119 120 123 118 111 104 95 84 75 71 76 76 75 82 100 95 91 86 81 76 66 65 50 24 357 56 60 52 39 27 19 13 6 2 352 336
112 110 110 105 102 107 112 117 118 120 118 115 112 104 92 83 82 84 86 82 78 89 90 92 91 91 97 84 67 43 33 48 50 48 42 32 19 9 349 343 338 321 291
104 102 100 99 95 89 90 94 100 109 116 115 111 106 99 88 81 91 100 101 103 101 101 104 102 87 86 86 84 64 59 52 43 43 35 24 9 1 357 351 339 331 321
100 99 96 91 90 82 73 60 68 62 75 94 100 102 102 95 72 67 86 93 96 100 108 103 93 87 77 69 64 57 51 50 46 36 26 15 6 357 352 349 341 327 323
104 99 97 97 96 96 94 80 61 66 63 63 63 81 82 86 88 81 78 77 77 79 96 93 83 75 68 63 61 57 51 42 30 21 16 9 1 353 347 345 341 335 331
102 101 100 99 100 102 103 102 95 75 66 63 65 72 84 90 88 88 90 91 86 83 88 83 78 71 63 56 51 47 42 38 20 13 10 4 355 348 345 343 340 337 333
101 98 99 99 100 101 102 103 105 106 101 89 76 78 85 87 85 87 106 114 92 80 77 76 73 67 60 53 48 42 35 28 19 10 7 2 355 348 346 344 342 344 332
103 104 103 104 104 103 104 104 103 103 104 107 107 99 100 106 98 75 63 76 76 75 72 70 66 61 57 51 43 34 29 23 15 2 7 360 353 347 346 342 337 336 321
97 98 105 108 108 108 107 108 108 108 107 106 104 105 116 112 93 83 74 70 72 71 69 67 62 57 51 42 34 25 21 19 11 2 1 352 347 343 342 337 336 334 333
109 109 111 110 109 109 109 110 110 109 105 101 94 76 50 93 89 83 78 74 70 69 66 62 59 53 46 34 25 21 16 14 9 360 353 346 343 341 337 333 331 330 330
112 112 110 106 106 106 108 108 107 106 107 108 110 107 88 88 88 85 81 77 73 67 61 53 50 46 36 28 22 16 12 10 4 355 347 342 337 335 334 332 333 331 329
109 109 108 107 108 113 114 111 111 111 109 109 109 108 105 95 91 87 83 79 74 67 62 55 49 43 37 30 23 17 13 6 354 344 337 334 334 334 331 332 331 327 328
108 110 112 114 116 115 111 112 112 112 110 109 106 104 102 100 94 89 83 79 75 69 63 58 53 46 35 23 18 26 24 3 344 335 333 327 328 331 331 329 327 329 328
112 114 116 116 116 113 112 112 110 108 108 108 107 105 103 102 100 96 90 84 79 71 65 57 51 46 36 29 25 22 11 359 347 335 322 319 328 332 331 327 329 327 328
112 113 112 111 111 113 115 115 115 115 114 114 113 112 111 109 105 101 98 88 83 81 69 62 51 39 29 29 28 13 1 351 342 332 318 316 328 338 338 329 331 330 331
Height
1512 1515 1517 1520 1523 1526 1529 1533 1536 1539 1542 1545 1547 1550 1552 1554 1556 1557 1560 1561 1562 1564 1565 1566 1567 1568 1570 1571 1572 1572 1573 1574 1574 1574 1574 1573 1572 1572 1573 1572 1572 1571 1571
1512 1514 1516 1519 1522 1525 1528 1531 1534 1537 1540 1542 1545 1547 1549 1551 1553 1554 1556 1558 1559 1560 1561 1562 1564 1565 1565 1567 1568 1569 1569 1570 1570 1570 1570 1570 1569 1569 1568 1568 1569 1569 1568
1511 1513 1516 1518 1521 1523 1526 1529 1532 1535 1537 1539 1542 1544 1546 1548 1549 1551 1553 1554 1555 1557 1558 1559 1560 1561 1562 1563 1564 1565 1566 1566 1567 1567 1567 1567 1566 1566 1565 1564 1565 1563 1564
1511 1513 1515 1517 1519 1522 1525 1527 1530 1532 1534 1536 1539 1541 1543 1544 1546 1548 1549 1551 1552 1553 1554 1555 1556 1558 1559 1560 1561 1561 1562 1562 1562 1563 1563 1563 1562 1562 1561 1561 1561 1560 1559
1509 1511 1514 1516 1518 1521 1523 1525 1527 1529 1531 1534 1536 1538 1540 1542 1543 1545 1546 1548 1549 1550 1551 1552 1553 1554 1555 1556 1558 1558 1559 1559 1559 1559 1559 1559 1559 1558 1558 1558 1557 1556 1555
1508 1510 1512 1514 1516 1519 1521 1523 1525 1527 1529 1531 1533 1535 1537 1538 1540 1542 1543 1545 1546 1547 1548 1549 1550 1551 1551 1552 1553 1554 1555 1555 1556 1556 1556 1556 1555 1555 1554 1554 1553 1553 1552
1506 1508 1510 1512 1514 1516 1518 1520 1522 1524 1526 1528 1530 1532 1533 1535 1537 1538 1540 1542 1543 1544 1545 1546 1548 1548 1548 1549 1550 1550 1551 1551 1552 1552 1552 1552 1552 1551 1550 1550 1549 1548 1547
1504 1506 1507 1509 1511 1513 1515 1517 1519 1521 1523 1525 1527 1529 1531 1532 1534 1535 1537 1538 1540 1541 1542 1543 1544 1545 1545 1546 1547 1547 1548 1548 1548 1549 1549 1548 1548 1547 1547 1546 1545 1544 1542
1502 1503 1505 1507 1509 1511 1512 1514 1516 1518 1520 1522 1525 1527 1528 1530 1531 1533 1534 1536 1537 1538 1539 1540 1541 1542 1542 1543 1544 1545 1545 1546 1546 1546 1546 1545 1544 1543 1543 1543 1542 1541 1540
1500 1501 1503 1504 1506 1508 1510 1511 1513 1515 1517 1520 1523 1524 1526 1527 1529 1530 1532 1534 1535 1536 1536 1537 1538 1539 1540 1541 1542 1543 1543 1543 1543 1543 1542 1542 1542 1541 1539 1539 1538 1538 1537
1498 1499 1501 1502 1504 1506 1508 1510 1512 1514 1516 1518 1521 1523 1524 1526 1527 1528 1530 1531 1533 1534 1535 1536 1536 1537 1538 1539 1540 1540 1540 1540 1541 1541 1541 1540 1540 1539 1537 1536 1535 1534 1534
1496 1498 1499 1501 1503 1505 1507 1509 1511 1514 1515 1518 1520 1522 1524 1525 1526 1527 1529 1530 1531 1533 1534 1535 1535 1536 1537 1538 1538 1538 1539 1539 1540 1540 1540 1539 1538 1537 1535 1534 1532 1531 1530
1496 1497 1498 1500 1502 1504 1506 1509 1511 1514 1516 1517 1520 1522 1524 1525 1526 1527 1528 1529 1531 1532 1533 1534 1535 1536 1536 1537 1537 1537 1538 1539 1539 1539 1538 1537 1536 1535 1533 1532 1531 1529 1527
1496 1497 1499 1500 1502 1504 1507 1509 1512 1514 1516 1518 1520 1522 1524 1526 1527 1528 1528 1530 1531 1532 1533 1534 1535 1536 1537 1537 1537 1538 1538 1537 1538 1538 1537 1536 1536 1534 1533 1531 1530 1528 1527
1496 1498 1500 1501 1502 1505 1507 1510 1513 1514 1516 1519 1522 1524 1525 1526 1528 1529 1530 1531 1532 1533 1535 1537 1538 1539 1539 1539 1539 1538 1538 1538 1538 1537 1537 1537 1535 1534 1533 1531 1529 1527 1526
1498 1500 1502 1503 1505 1507 1509 1512 1515 1517 1519 1521 1523 1525 1527 1529 1530 1531 1532 1533 1534 1535 1537 1539 1540 1540 1541 1541 1541 1540 1540 1539 1538 1538 1537 1536 1535 1534 1532 1530 1528 1526 1524
1500 1502 1505 1507 1509 1512 1514 1515 1517 1520 1522 1525 1527 1529 1530 1532 1533 1534 1535 1536 1537 1538 1540 1540 1541 1542 1542 1542 1542 1541 1540 1540 1538 1538 1537 1535 1534 1532 1531 1529 1527 1525 1522
1504 1506 1508 1511 1514 1516 1518 1520 1522 1523 1526 1529 1531 1533 1534 1535 1536 1537 1538 1539 1541 1541 1542 1542 1543 1543 1543 1543 1542 1542 1541 1540 1539 1538 1537 1535 1533 1532 1530 1528 1526 1523 1521
1508 1510 1513 1516 1518 1520 1523 1525 1527 1528 1531 1533 1535 1536 1538 1539 1540 1541 1542 1543 1544 1544 1544 1544 1544 1545 1544 1544 1543 1542 1541 1540 1539 1538 1537 1535 1533 1531 1529 1527 1525 1521 1519
1513 1515 1517 1520 1523 1525 1527 1529 1531 1533 1535 1537 1539 1540 1542 1543 1544 1544 1545 1545 1546 1546 1546 1546 1546 1545 1545 1544 1544 1543 1542 1541 1539 1538 1536 1534 1532 1530 1528 1526 1523 1521 1518
1518 1520 1522 1525 1527 1529 1531 1533 1535 1537 1538 1540 1541 1542 1544 1546 1547 1547 1547 1547 1547 1548 1547 1547 1547 1547 1546 1545 1544 1543 1542 1541 1539 1537 1536 1534 1532 1530 1527 1525 1522 1519 1517
1523 1525 1527 1529 1531 1533 1535 1537 1538 1540 1541 1543 1544 1545 1546 1547 1548 1549 1549 1549 1549 1549 1549 1548 1548 1547 1546 1545 1544 1543 1542 1540 1538 1536 1535 1533 1531 1529 1526 1524 1521 1518 1515
1527 1529 1531 1533 1534 1536 1538 1540 1541 1543 1544 1546 1547 1548 1549 1550 1550 1551 1551 1550 1550 1550 1550 1549 1549 1548 1547 1545 1544 1543 1541 1539 1537 1535 1533 1532 1530 1528 1525 1522 1520 1517 1514
1532 1533 1535 1537 1538 1540 1541 1543 1544 1546 1547 1548 1549 1550 1551 1551 1552 1552 1552 1552 1552 1551 1550 1550 1549 1548 1546 1545 1544 1543 1540 1537 1535 1534 1532 1530 1529 1527 1524 1521 1518 1516 1513
1535 1537 1538 1540 1541 1543 1544 1545 1546 1548 1549 1550 1551 1552 1552 1553 1553 1553 1553 1553 1552 1552 1551 1550 1550 1548 1547 1545 1543 1541 1539 1537 1534 1532 1530 1530 1528 1525 1523 1520 1517 1514 1511
1539 1540 1541 1543 1544 1545 1546 1547 1548 1549 1551 1551 1552 1553 1553 1554 1554 1554 1554 1553 1553 1552 1552 1551 1549 1548 1547 1545 1542 1540 1538 1536 1534 1532 1529 1528 1527 1525 1521 1519 1516 1513 1510